"Pseudo-MPEC" for A10oyI5

Created 2020 Aug 15 10:07:04 UT using Find_Orb

Click here for an explanation of pseudo-MPECs

 
 Astrometry: 
     A10oyI5  C2020 07 28.50525722 54 39.03 +56 23 02.9    ~7SFb 19.36oVNEOCPT08
     A10oyI5  C2020 07 28.50847822 54 39.06 +56 23 03.2    ~7SFb 19.37oVNEOCPT08
     A10oyI5  C2020 07 28.51124422 54 38.87 +56 23 02.2    ~7SFb 19.09oVNEOCPT08
     A10oyI5  C2020 07 28.51769122 54 38.79 +56 23 02.5    ~7SFb 19.40oVNEOCPT08

Station data:
(T08) ATLAS-MLO, Mauna Loa  (N19.536152 W155.576050)  US/Hawaii.  Observers
   L. Denneau, A. Heinze, H. Weiland, J. Tonry, H. Flewelling, A.
   Fitzsimmons, D. Young, B. Stalder. Measurers L. Denneau, A. Heinze, J.
   Tonry. 0.5-m f/2.0 Schmidt + CCD.

Orbital elements:  A10oyI5
   Perihelion 2020 Apr 15.134389 +/- 99.5 TT =  3:13:31 (JD 2458954.634389)
Epoch 2020 Jul 29.0 TT = JDT 2459059.5   Earth MOID: 0.3344   AutoNEOCP
M  42.88022609 +/- 60               (J2000 ecliptic)
n   0.40890646 +/- 0.386            Peri.   46.61172 +/- 100
a   1.79771178 +/- 1.13             Node   203.88220 +/- 31
e   0.3004189 +/- 0.273             Incl.   37.53352 +/- 18
P   2.41/880.38d           H 16.9   G  0.15   U 12.1  SR
q 1.25764510 +/- 0.901    Q 2.33777847 +/- 23.7
From 4 observations 2020 July 28 (17.9 min); mean residual 0".36
Residuals in arcseconds: 
200728 T08  .23-  .02-    200728 T08  .46-  .46-    
200728 T08  .61+  .42+    200728 T08  .06+  .12+    

Ephemerides (geocentric):
Date (UTC) HH   RA              Dec         delta   r     elong  mag " sig PA
---- -- -- --  -------------   -----------  ------ ------ -----  --- ---- ---
2020 08 15 10  22 43 18.439   +54 19 59.33  .90379 1.5753 110.4 19.2  39d 131
2020 08 15 11  22 43 16.117   +54 19 25.01  .90365 1.5755 110.5 19.2  39d 131
2020 08 15 12  22 43 13.792   +54 18 50.61  .90351 1.5757 110.5 19.2  39d 131
2020 08 15 13  22 43 11.465   +54 18 16.11  .90337 1.5758 110.5 19.2  39d 130
2020 08 15 14  22 43 09.136   +54 17 41.52  .90323 1.5760 110.6 19.2  39d 130
2020 08 15 15  22 43 06.805   +54 17 06.85  .90309 1.5762 110.6 19.2  40d 130
2020 08 15 16  22 43 04.472   +54 16 32.08  .90295 1.5764 110.6 19.2  40d 130
2020 08 15 17  22 43 02.136   +54 15 57.23  .90281 1.5765 110.6 19.2  40d 130
2020 08 15 18  22 42 59.799   +54 15 22.28  .90267 1.5767 110.7 19.2  40d 130
2020 08 15 19  22 42 57.459   +54 14 47.25  .90254 1.5769 110.7 19.2  40d 130
2020 08 15 20  22 42 55.117   +54 14 12.13  .90240 1.5770 110.7 19.2  40d 130
2020 08 15 21  22 42 52.773   +54 13 36.91  .90226 1.5772 110.8 19.2  40d 130
2020 08 15 22  22 42 50.427   +54 13 01.61  .90212 1.5774 110.8 19.2  40d 130
2020 08 15 23  22 42 48.079   +54 12 26.22  .90198 1.5775 110.8 19.2  40d 130
2020 08 16 00  22 42 45.728   +54 11 50.73  .90184 1.5777 110.9 19.2  40d 130
2020 08 16 01  22 42 43.376   +54 11 15.16  .90170 1.5779 110.9 19.2  40d 130
2020 08 16 02  22 42 41.021   +54 10 39.50  .90156 1.5780 110.9 19.2  43d 131
2020 08 16 03  22 42 38.665   +54 10 03.74  .90142 1.5782 110.9 19.2  43d 131
2020 08 16 04  22 42 36.306   +54 09 27.90  .90128 1.5784 111.0 19.2  43d 131
2020 08 16 05  22 42 33.945   +54 08 51.96  .90114 1.5785 111.0 19.2  43d 131
2020 08 16 06  22 42 31.583   +54 08 15.94  .90100 1.5787 111.0 19.2  43d 131
2020 08 16 07  22 42 29.218   +54 07 39.82  .90087 1.5789 111.1 19.2  43d 131
2020 08 16 08  22 42 26.851   +54 07 03.62  .90073 1.5790 111.1 19.2  43d 131
2020 08 16 09  22 42 24.483   +54 06 27.32  .90059 1.5792 111.1 19.2  43d 131
2020 08 16 10  22 42 22.112   +54 05 50.93  .90045 1.5794 111.2 19.2  43d 131
2020 08 16 11  22 42 19.739   +54 05 14.46  .90031 1.5795 111.2 19.2  43d 131
2020 08 16 12  22 42 17.365   +54 04 37.89  .90017 1.5797 111.2 19.2  43d 131
2020 08 16 13  22 42 14.988   +54 04 01.23  .90003 1.5799 111.3 19.2  43d 131
2020 08 16 14  22 42 12.610   +54 03 24.48  .89990 1.5800 111.3 19.2  43d 131
2020 08 16 15  22 42 10.229   +54 02 47.64  .89976 1.5802 111.3 19.2  43d 132
2020 08 16 16  22 42 07.847   +54 02 10.71  .89962 1.5804 111.3 19.2  43d 132
2020 08 16 17  22 42 05.462   +54 01 33.68  .89948 1.5805 111.4 19.2  43d 132
2020 08 16 18  22 42 03.076   +54 00 56.57  .89934 1.5807 111.4 19.2  43d 132
2020 08 16 19  22 42 00.688   +54 00 19.36  .89920 1.5809 111.4 19.2  43d 132
2020 08 16 20  22 41 58.298   +53 59 42.07  .89907 1.5810 111.5 19.2  43d 132
2020 08 16 21  22 41 55.906   +53 59 04.68  .89893 1.5812 111.5 19.2  43d 132
2020 08 16 22  22 41 53.513   +53 58 27.20  .89879 1.5814 111.5 19.2  43d 132
2020 08 16 23  22 41 51.117   +53 57 49.63  .89865 1.5815 111.6 19.2  43d 132
2020 08 17 00  22 41 48.720   +53 57 11.97  .89851 1.5817 111.6 19.2  43d 132
2020 08 17 01  22 41 46.321   +53 56 34.21  .89838 1.5819 111.6 19.2  43d 132
2020 08 17 02  22 41 43.920   +53 55 56.37  .89824 1.5820 111.6 19.2  43d 132
2020 08 17 03  22 41 41.517   +53 55 18.43  .89810 1.5822 111.7 19.2  43d 132
2020 08 17 04  22 41 39.113   +53 54 40.41  .89796 1.5824 111.7 19.2  44d 132
2020 08 17 05  22 41 36.706   +53 54 02.29  .89783 1.5825 111.7 19.2  44d 132
2020 08 17 06  22 41 34.298   +53 53 24.07  .89769 1.5827 111.8 19.2  44d 132
2020 08 17 07  22 41 31.888   +53 52 45.77  .89755 1.5829 111.8 19.2  44d 132
2020 08 17 08  22 41 29.477   +53 52 07.37  .89741 1.5830 111.8 19.2  44d 132
2020 08 17 09  22 41 27.063   +53 51 28.89  .89728 1.5832 111.9 19.2  44d 132